Voltar ao catálogo

STARLINK-37119

AtivoComunicaçõesSSO
NORAD 68210·PAYLOAD·🇺🇸 United States

Lançado Mar 17, 2026 de Vandenberg Space Force Base

Loading…

Próximas Passagens (próximas 24 horas)

TLE

AtualizadoSource: CelesTrak SupGP

Época: Sep 15, 2026, 03:39 UTC

1 68210C 26053D   26258.15256944  .00022277  00000+0  69137-3 0  2588
2 68210  97.2846 131.9451 0002457  94.5100 132.8861 15.33433439    14

Acompanhe STARLINK-37119 em tempo real com AllMySat

Download on the App Store